Regional Weather Roundup
Issued by NWS

Home | Current Version | Previous Version | Text Only | Print | Product List | Glossary On
Versions: 1 2 3 4 5 6 7 8 9 10 11 12 13 14 15 16 17 18 19 20 21 22 23 24 25 26 27 28 29 30 31 32 33 34 35 36 37 38 39 40 41 42 43 44 45 46 47 48 49 50
000
ASUS43 KOAX 250510
RWRNE

WEATHER ROUNDUP FOR NEBRASKA
NATIONAL WEATHER SERVICE OMAHA NE
1200 AM CDT SAT OCT 25 2014

NOTES: SATELLITE DATA IS BEING USED TO AUGMENT CLOUD COVER ABOVE
       12000 FEET.
       "FAIR" INDICATES FEW OR NO CLOUDS BELOW 12,000 FEET WITH NO
       SIGNIFICANT WEATHER AND/OR OBSTRUCTIONS TO VISIBILITY.

  * THESE STATIONS DO NOT REPORT WEATHER SUCH AS RAIN...SNOW OR FOG.

NEZ001>004-019>022-054>056-250600-
NEBRASKA PANHANDLE

CITY           SKY/WX    TMP DP  RH WIND       PRES   REMARKS
SCOTTSBLUFF    CLEAR     50  32  50 NE3       30.12R
ALLIANCE       CLEAR     37  33  85 W7        30.11R WCI  32
CHADRON        CLEAR     40  35  83 CALM      30.13R
KIMBALL        CLEAR     47  28  48 W6        30.16S
SIDNEY         CLEAR     46  34  62 SW7       30.15S
$$

NEZ057>060-069>072-079>082-250600-
SOUTHWEST NEBRASKA

CITY           SKY/WX    TMP DP  RH WIND       PRES   REMARKS
NORTH PLATTE   CLEAR     45  39  79 S3        30.06R
IMPERIAL       CLEAR     53  33  46 W8        30.10R
LEXINGTON      CLEAR     47  41  78 CALM      30.06R HAZE
MCCOOK         CLEAR     49  36  61 NW6       30.07R
OGALLALA       CLEAR     47  36  64 W3        30.08S
$$

NEZ005>010-023>029-035>040-094-250600-
NORTH CENTRAL NEBRASKA

CITY           SKY/WX    TMP DP  RH WIND       PRES   REMARKS
VALENTINE      CLEAR     48  35  60 NW8       30.07R
AINSWORTH      CLEAR     49  37  64 CALM      30.05S
BROKEN BOW     CLEAR     46  40  79 CALM      30.05S
O`NEILL        CLEAR     50  41  72 SW3       30.04S
ORD            CLEAR     43  39  86 CALM      30.03F
THEDFORD       CLEAR     48  35  60 CALM      30.07S
$$

NEZ041-046>049-061>064-073>077-083>087-250600-
SOUTH CENTRAL NEBRASKA

CITY           SKY/WX    TMP DP  RH WIND       PRES   REMARKS
GRAND ISLAND   CLEAR     50  44  80 CALM      30.04S
AURORA         CLEAR     50  45  84 CALM      30.04S
HASTINGS       CLEAR     54  45  71 CALM      30.04S
HEBRON         CLEAR     53  47  82 CALM      30.03S
HOLDREGE       CLEAR     51  41  68 CALM      30.06R
KEARNEY *      CLEAR     50  43  76 CALM      30.06R
YORK           CLEAR     54  46  76 NE5       30.03F
$$

NEZ011>018-030>034-042>045-250600-
NORTHEAST NEBRASKA

CITY           SKY/WX    TMP DP  RH WIND       PRES   REMARKS
NORFOLK        CLEAR     47  43  86 CALM      30.02F
ALBION         CLEAR     44  40  87 CALM      30.03S
BLAIR          CLEAR     60  48  64 NW8       30.01R
COLUMBUS *     CLEAR     46  43  87 CALM      30.03F
FREMONT        CLEAR     53  47  79 W5        30.02S
TEKAMAH        CLEAR     49  45  86 CALM      30.01R
WAYNE          CLEAR     47  44  90 CALM      30.03S
$$

NEZ050>053-065>068-078-088>093-250600-
SOUTHEAST NEBRASKA

CITY           SKY/WX    TMP DP  RH WIND       PRES   REMARKS
LINCOLN        CLEAR     53  49  86 N5        30.03R
OMAHA EPPLEY   CLEAR     52  51  97 NW5       30.01S
BEATRICE       CLEAR     52  51  95 CALM      30.02R
FALLS CITY     CLEAR     59  57  93 NW5       29.98S
NEBRASKA CITY  CLEAR     60  53  78 N8        30.00R
PLATTSMOUTH    CLEAR     56  53  87 W3        30.01R
$$

NEZ044-045-051>053-067-250600-
OMAHA AREA

CITY           SKY/WX    TMP DP  RH WIND       PRES   REMARKS
OMAHA EPPLEY   CLEAR     52  51  97 NW5       30.01S
BLAIR          CLEAR     60  48  64 NW8       30.01R
FREMONT        CLEAR     53  47  79 W5        30.02S
MILLARD        CLEAR     55  53  94 NW3       30.01S
OFFUTT AFB     CLEAR     54  54 100 W2        29.99S
PLATTSMOUTH    CLEAR     56  53  87 W3        30.01R
WAHOO          FAIR      52  46  77 CALM      30.02S
$$



USA.gov is the U.S. government's official web portal to all federal, state and local government web resources and services.